• In Germany
  • List of Countries
  • For 7 days
  • Water Temperature
  • Satellite Maps
  • Weather Map
  • Weather Widgets
  • user-avatar
    Login

    Hourly Weather Canberra

    Today, 18 October, Wednesday

    Time Temperature Precipitation Wind Pressure Humidity
    00:00 +11°C° 0 mm 1 mps 716 mmHg 95%
    01:00 +10°C° 0 mm 1 mps 716 mmHg 96%
    02:00 +10°C° 0 mm 1 mps 716 mmHg 95%
    03:00 +10°C° 0 mm 1 mps 715 mmHg 94%
    04:00 +9°C° 0 mm 1 mps 715 mmHg 94%
    05:00 +10°C° 0 mm 1 mps 716 mmHg 89%
    06:00 +12°C° 0 mm 1 mps 716 mmHg 83%
    07:00 +13°C° 0 mm 1 mps 716 mmHg 78%
    08:00 +16°C° 0 mm 1 mps 717 mmHg 67%
    09:00 +19°C° 0 mm 2 mps 717 mmHg 55%
    10:00 +24°C° 0 mm 2 mps 717 mmHg 41%
    11:00 +25°C° 0 mm 2 mps 717 mmHg 39%
    12:00 +26°C° 0 mm 2 mps 716 mmHg 36%
    13:00 +27°C° 0 mm 3 mps 716 mmHg 34%
    14:00 +27°C° 0 mm 3 mps 716 mmHg 36%
    15:00 +27°C° 0 mm 3 mps 715 mmHg 38%
    16:00 +27°C° 0 mm 2 mps 715 mmHg 40%
    17:00 +24°C° 0 mm 2 mps 715 mmHg 49%
    18:00 +21°C° 0 mm 2 mps 715 mmHg 59%
    19:00 +19°C° 0 mm 3 mps 715 mmHg 68%
    20:00 +17°C° 0 mm 2 mps 715 mmHg 76%
    21:00 +15°C° 0 mm 2 mps 715 mmHg 84%
    22:00 +14°C° 0 mm 1 mps 715 mmHg 92%
    23:00 +13°C° 0 mm 1 mps 715 mmHg 93%

    Tomorrow, 19 October, Thursday

    Time Temperature Precipitation Wind Pressure Humidity
    00:00 +13°C° 0 mm 1 mps 714 mmHg 95%
    01:00 +13°C° 0 mm 1 mps 714 mmHg 96%
    02:00 +12°C° 0 mm 1 mps 714 mmHg 96%
    03:00 +12°C° 0 mm 1 mps 714 mmHg 96%
    04:00 +12°C° 0 mm 1 mps 714 mmHg 96%
    05:00 +14°C° 0 mm 1 mps 714 mmHg 91%
    06:00 +15°C° 0 mm 1 mps 714 mmHg 86%
    07:00 +16°C° 0 mm 1 mps 715 mmHg 80%
    08:00 +19°C° 0 mm 2 mps 715 mmHg 72%
    09:00 +21°C° 0 mm 3 mps 715 mmHg 64%
    10:00 +25°C° 0 mm 4 mps 715 mmHg 56%
    11:00 +26°C° 0.1 mm 4 mps 714 mmHg 54%
    12:00 +26°C° 0.1 mm 5 mps 714 mmHg 52%
    13:00 +27°C° 0.1 mm 5 mps 713 mmHg 50%
    14:00 +26°C° 0.4 mm 4 mps 713 mmHg 59%
    15:00 +23°C° 0.4 mm 4 mps 712 mmHg 68%
    16:00 +21°C° 0.4 mm 4 mps 712 mmHg 77%
    17:00 +20°C° 1.1 mm 3 mps 712 mmHg 83%
    18:00 +18°C° 1.1 mm 3 mps 712 mmHg 89%
    19:00 +17°C° 1.1 mm 2 mps 712 mmHg 94%
    20:00 +17°C° 0.6 mm 2 mps 712 mmHg 95%
    21:00 +17°C° 0.6 mm 2 mps 712 mmHg 96%
    22:00 +17°C° 0.6 mm 2 mps 712 mmHg 97%
    23:00 +16°C° 1.2 mm 2 mps 712 mmHg 97%

    Day after tomorrow, 20 October, Friday

    Time Temperature Precipitation Wind Pressure Humidity
    00:00 +16°C° 1.2 mm 1 mps 711 mmHg 98%
    01:00 +16°C° 1.2 mm 1 mps 711 mmHg 98%
    02:00 +16°C° 0.4 mm 1 mps 711 mmHg 98%
    03:00 +16°C° 0.4 mm 1 mps 710 mmHg 98%
    04:00 +16°C° 0.4 mm 1 mps 710 mmHg 98%
    05:00 +18°C° 0.1 mm 1 mps 711 mmHg 97%
    06:00 +18°C° 0.1 mm 1 mps 711 mmHg 97%
    07:00 +18°C° 0.1 mm 1 mps 712 mmHg 96%
    08:00 +19°C° 0.3 mm 1 mps 712 mmHg 92%
    09:00 +19°C° 0.3 mm 1 mps 713 mmHg 88%
    10:00 +19°C° 0.3 mm 2 mps 713 mmHg 84%
    11:00 +18°C° 0.3 mm 2 mps 713 mmHg 83%
    12:00 +17°C° 0.3 mm 2 mps 712 mmHg 83%
    13:00 +17°C° 0.3 mm 3 mps 712 mmHg 83%
    14:00 +16°C° 0.2 mm 3 mps 712 mmHg 85%
    15:00 +14°C° 0.2 mm 3 mps 712 mmHg 86%
    16:00 +13°C° 0.2 mm 3 mps 711 mmHg 87%
    17:00 +12°C° 0.1 mm 3 mps 712 mmHg 89%
    18:00 +11°C° 0.1 mm 3 mps 712 mmHg 90%
    19:00 +12°C° 0.1 mm 2 mps 713 mmHg 92%
    20:00 +10°C° 0 mm 2 mps 713 mmHg 91%
    21:00 +10°C° 0 mm 2 mps 714 mmHg 90%
    22:00 +9°C° 0 mm 2 mps 714 mmHg 89%
    23:00 +8°C° 0 mm 2 mps 714 mmHg 90%

    21 October, Saturday

    Time Temperature Precipitation Wind Pressure Humidity
    00:00 +7°C° 0 mm 2 mps 713 mmHg 92%
    01:00 +6°C° 0 mm 2 mps 713 mmHg 93%
    02:00 +5°C° 0 mm 2 mps 713 mmHg 93%
    03:00 +6°C° 0 mm 1 mps 713 mmHg 93%
    04:00 +5°C° 0 mm 1 mps 713 mmHg 93%
    05:00 +6°C° 0 mm 1 mps 713 mmHg 87%
    06:00 +8°C° 0 mm 1 mps 713 mmHg 82%
    07:00 +9°C° 0 mm 1 mps 713 mmHg 77%
    08:00 +12°C° 0 mm 1 mps 713 mmHg 64%
    09:00 +15°C° 0 mm 1 mps 714 mmHg 51%
    10:00 +20°C° 0 mm 1 mps 714 mmHg 39%
    11:00 +21°C° 0 mm 1 mps 713 mmHg 38%
    12:00 +22°C° 0 mm 1 mps 712 mmHg 36%
    13:00 +23°C° 0 mm 1 mps 712 mmHg 35%
    14:00 +21°C° 0 mm 2 mps 711 mmHg 39%
    15:00 +20°C° 0 mm 2 mps 710 mmHg 44%
    16:00 +19°C° 0 mm 3 mps 709 mmHg 48%
    17:00 +17°C° 0.1 mm 2 mps 710 mmHg 59%
    18:00 +14°C° 0.1 mm 2 mps 710 mmHg 70%
    19:00 +12°C° 0.1 mm 2 mps 710 mmHg 80%
    20:00 +10°C° 0 mm 2 mps 710 mmHg 84%
    21:00 +9°C° 0 mm 2 mps 710 mmHg 87%
    22:00 +9°C° 0 mm 2 mps 710 mmHg 90%
    23:00 +8°C° 0 mm 2 mps 710 mmHg 91%

    22 October, Sunday

    Time Temperature Precipitation Wind Pressure Humidity
    00:00 +9°C° 0 mm 1 mps 709 mmHg 92%
    01:00 +9°C° 0 mm 1 mps 709 mmHg 92%
    02:00 +9°C° 0 mm 1 mps 709 mmHg 93%
    03:00 +9°C° 0 mm 1 mps 708 mmHg 94%
    04:00 +8°C° 0 mm 0 mps 708 mmHg 94%
    05:00 +10°C° 0 mm 1 mps 708 mmHg 93%
    06:00 +10°C° 0 mm 1 mps 708 mmHg 91%
    07:00 +11°C° 0 mm 1 mps 708 mmHg 90%
    08:00 +13°C° 0 mm 1 mps 708 mmHg 80%
    09:00 +14°C° 0 mm 2 mps 708 mmHg 71%
    10:00 +16°C° 0 mm 2 mps 708 mmHg 61%
    11:00 +17°C° 0.1 mm 2 mps 707 mmHg 57%
    12:00 +18°C° 0.1 mm 2 mps 707 mmHg 52%
    13:00 +19°C° 0.1 mm 2 mps 707 mmHg 48%
    14:00 +18°C° 0.1 mm 2 mps 706 mmHg 51%
    15:00 +18°C° 0.1 mm 2 mps 706 mmHg 55%
    16:00 +18°C° 0.1 mm 2 mps 706 mmHg 59%
    17:00 +16°C° 0.3 mm 2 mps 706 mmHg 69%
    18:00 +14°C° 0.3 mm 2 mps 707 mmHg 80%
    19:00 +12°C° 0.3 mm 2 mps 707 mmHg 90%
    20:00 +10°C° 0 mm 2 mps 707 mmHg 92%
    21:00 +9°C° 0 mm 2 mps 708 mmHg 95%
    22:00 +10°C° 0 mm 1 mps 708 mmHg 97%
    23:00 +9°C° 0 mm 1 mps 708 mmHg 97%

    23 October, Monday

    Time Temperature Precipitation Wind Pressure Humidity
    00:00 +8°C° 0 mm 1 mps 708 mmHg 96%
    01:00 +8°C° 0 mm 1 mps 708 mmHg 96%
    02:00 +7°C° 0 mm 1 mps 708 mmHg 96%
    03:00 +7°C° 0 mm 1 mps 708 mmHg 95%
    04:00 +7°C° 0 mm 1 mps 708 mmHg 95%
    05:00 +8°C° 0 mm 1 mps 708 mmHg 91%
    06:00 +9°C° 0 mm 1 mps 709 mmHg 87%
    07:00 +11°C° 0 mm 1 mps 710 mmHg 83%
    08:00 +14°C° 0 mm 1 mps 710 mmHg 69%
    09:00 +18°C° 0 mm 1 mps 710 mmHg 55%
    10:00 +20°C° 0 mm 0 mps 711 mmHg 41%
    11:00 +23°C° 0 mm 1 mps 710 mmHg 38%
    12:00 +23°C° 0 mm 1 mps 710 mmHg 35%
    13:00 +24°C° 0 mm 1 mps 710 mmHg 32%
    14:00 +24°C° 0 mm 2 mps 710 mmHg 35%
    15:00 +23°C° 0 mm 2 mps 709 mmHg 37%
    16:00 +23°C° 0 mm 2 mps 709 mmHg 40%
    17:00 +19°C° 0 mm 2 mps 709 mmHg 52%
    18:00 +16°C° 0 mm 2 mps 709 mmHg 64%
    19:00 +14°C° 0 mm 2 mps 709 mmHg 76%
    20:00 +12°C° 0 mm 1 mps 710 mmHg 82%
    21:00 +11°C° 0 mm 1 mps 710 mmHg 88%
    22:00 +10°C° 0 mm 1 mps 710 mmHg 94%
    23:00 +9°C° 0 mm 1 mps 710 mmHg 95%
    Show more